Simultaneous Nadir Overpasses (SNOs) Predictions

Prediction of SNOs between METOP-B and TERRA Satellite Orbit:

Table of predicted SNOs for the next 14.0 days since TLE Epoch: 12/14/2014
Index Date (METOP-B) Time (METOP-B) Lat,Lon (METOP-B) SZA (METOP-B ) Date (TERRA) Time (TERRA) Lat,Lon (TERRA) SZA (TERRA ) Distance(km) Time Diff (sec)
1 12/14/2014 12:20:30 81.27, 41.36 107.18 12/14/2014 12:20:51 81.27, 41.48 107.21 1.95 21
2 12/14/2014 13:11:09 -81.28,-150.45 72.72 12/14/2014 13:10:17 -81.29,-150.59 72.75 2.52 52
3 12/17/2014 07:54:51 81.27, 108.07 107.31 12/17/2014 07:55:10 81.27, 107.97 107.31 1.67 19
4 12/17/2014 08:45:32 -81.27, -84.50 72.68 12/17/2014 08:44:37 -81.27, -84.45 72.70 0.98 55
5 12/20/2014 03:29:14 81.27, 174.32 107.33 12/20/2014 03:29:34 81.28, 174.44 107.36 2.08 20
6 12/20/2014 04:19:54 -81.28, -17.84 72.61 12/20/2014 04:19:01 -81.28, -17.95 72.65 1.91 53
7 12/22/2014 23:03:37 81.27,-119.48 107.28 12/22/2014 23:04:03 81.26,-119.50 107.28 0.83 26
8 12/22/2014 23:54:17 -81.28, 48.38 72.67 12/22/2014 23:53:29 -81.28, 48.53 72.67 2.56 48
9 12/25/2014 18:37:58 81.27, -52.95 107.20 12/25/2014 18:38:34 81.26, -53.08 107.20 2.37 36




NCC Satellite Simultaneous Nadir Overpasses (SNOs) Prediction Service
